EN

Hourly Weather Caipan

Today, 16 April, Friday

Time Temperature Precipitation Wind Pressure Humidity
00:00 +24°C° 0 mm 1 mps 666 mmHg 66%
01:00 +22°C° 0 mm 0 mps 666 mmHg 67%
02:00 +22°C° 0 mm 0 mps 665 mmHg 68%
03:00 +22°C° 0 mm 0 mps 665 mmHg 68%
04:00 +23°C° 0 mm 1 mps 665 mmHg 69%
05:00 +23°C° 0 mm 1 mps 665 mmHg 70%
06:00 +23°C° 0 mm 1 mps 665 mmHg 71%
07:00 +25°C° 0 mm 1 mps 666 mmHg 61%
08:00 +28°C° 0 mm 1 mps 666 mmHg 51%
09:00 +30°C° 0 mm 1 mps 667 mmHg 41%
10:00 +32°C° 0 mm 2 mps 667 mmHg 35%
11:00 +35°C° 0 mm 2 mps 667 mmHg 28%
12:00 +37°C° 0 mm 3 mps 667 mmHg 21%
13:00 +37°C° 0 mm 2 mps 666 mmHg 21%
14:00 +37°C° 0 mm 2 mps 665 mmHg 20%
15:00 +38°C° 0 mm 2 mps 665 mmHg 19%
16:00 +36°C° 0 mm 2 mps 664 mmHg 25%
17:00 +35°C° 0 mm 3 mps 664 mmHg 31%
18:00 +33°C° 0 mm 3 mps 664 mmHg 37%
19:00 +30°C° 0 mm 2 mps 665 mmHg 44%
20:00 +29°C° 0 mm 2 mps 665 mmHg 52%
21:00 +27°C° 0 mm 1 mps 665 mmHg 59%
22:00 +27°C° 0 mm 1 mps 665 mmHg 59%
23:00 +26°C° 0 mm 1 mps 665 mmHg 59%

Tomorrow, 17 April, Saturday

Time Temperature Precipitation Wind Pressure Humidity
00:00 +26°C° 0 mm 1 mps 665 mmHg 59%
01:00 +26°C° 0 mm 1 mps 665 mmHg 59%
02:00 +25°C° 0 mm 1 mps 664 mmHg 58%
03:00 +25°C° 0 mm 1 mps 664 mmHg 58%
04:00 +25°C° 0 mm 1 mps 664 mmHg 57%
05:00 +24°C° 0 mm 1 mps 664 mmHg 56%
06:00 +24°C° 0 mm 1 mps 664 mmHg 54%
07:00 +26°C° 0 mm 1 mps 665 mmHg 46%
08:00 +29°C° 0 mm 1 mps 666 mmHg 37%
09:00 +31°C° 0 mm 1 mps 667 mmHg 28%
10:00 +33°C° 0 mm 1 mps 666 mmHg 24%
11:00 +35°C° 0 mm 2 mps 666 mmHg 21%
12:00 +37°C° 0 mm 2 mps 666 mmHg 17%
13:00 +38°C° 0 mm 2 mps 666 mmHg 17%
14:00 +38°C° 0 mm 2 mps 665 mmHg 17%
15:00 +38°C° 0 mm 2 mps 664 mmHg 18%
16:00 +37°C° 0 mm 3 mps 664 mmHg 24%
17:00 +35°C° 0 mm 3 mps 664 mmHg 30%
18:00 +33°C° 0 mm 4 mps 664 mmHg 36%
19:00 +30°C° 0.3 mm 3 mps 665 mmHg 48%
20:00 +28°C° 0.3 mm 2 mps 665 mmHg 60%
21:00 +25°C° 0.3 mm 1 mps 666 mmHg 71%
22:00 +25°C° 0.1 mm 1 mps 666 mmHg 74%
23:00 +24°C° 0.1 mm 1 mps 666 mmHg 76%

Day after tomorrow, 18 April, Sunday

Time Temperature Precipitation Wind Pressure Humidity
00:00 +24°C° 0.1 mm 1 mps 666 mmHg 79%
01:00 +23°C° 0.3 mm 1 mps 666 mmHg 82%
02:00 +23°C° 0.3 mm 1 mps 666 mmHg 84%
03:00 +22°C° 0.3 mm 1 mps 665 mmHg 87%
04:00 +22°C° 0.2 mm 1 mps 666 mmHg 88%
05:00 +22°C° 0.2 mm 1 mps 666 mmHg 89%
06:00 +21°C° 0.2 mm 1 mps 666 mmHg 91%
07:00 +22°C° 0 mm 1 mps 667 mmHg 85%
08:00 +23°C° 0 mm 1 mps 667 mmHg 80%
09:00 +25°C° 0 mm 1 mps 668 mmHg 75%
10:00 +27°C° 0 mm 2 mps 667 mmHg 66%
11:00 +28°C° 0 mm 2 mps 667 mmHg 57%
12:00 +30°C° 0 mm 2 mps 667 mmHg 49%
13:00 +31°C° 0.1 mm 3 mps 666 mmHg 49%
14:00 +31°C° 0.1 mm 3 mps 666 mmHg 49%
15:00 +32°C° 0.1 mm 4 mps 665 mmHg 49%
16:00 +29°C° 0.3 mm 4 mps 665 mmHg 59%
17:00 +26°C° 0.3 mm 4 mps 665 mmHg 69%
18:00 +23°C° 0.3 mm 4 mps 665 mmHg 80%
19:00 +22°C° 0.2 mm 3 mps 666 mmHg 82%
20:00 +23°C° 0.2 mm 2 mps 666 mmHg 84%
21:00 +22°C° 0.2 mm 1 mps 667 mmHg 86%
22:00 +22°C° 0 mm 1 mps 667 mmHg 86%
23:00 +21°C° 0 mm 1 mps 667 mmHg 87%

19 April, Monday

Time Temperature Precipitation Wind Pressure Humidity
00:00 +21°C° 0 mm 1 mps 667 mmHg 88%
01:00 +21°C° 0 mm 1 mps 667 mmHg 88%
02:00 +21°C° 0 mm 1 mps 666 mmHg 88%
03:00 +21°C° 0 mm 1 mps 666 mmHg 87%
04:00 +21°C° 0 mm 1 mps 666 mmHg 87%
05:00 +20°C° 0 mm 1 mps 667 mmHg 87%
06:00 +20°C° 0 mm 1 mps 667 mmHg 87%
07:00 +21°C° 0 mm 1 mps 667 mmHg 81%
08:00 +23°C° 0 mm 1 mps 668 mmHg 75%
09:00 +24°C° 0 mm 1 mps 668 mmHg 69%
10:00 +26°C° 0 mm 1 mps 668 mmHg 59%
11:00 +28°C° 0 mm 2 mps 668 mmHg 49%
12:00 +30°C° 0 mm 2 mps 667 mmHg 39%
13:00 +31°C° 0 mm 2 mps 667 mmHg 37%
14:00 +32°C° 0 mm 2 mps 666 mmHg 34%
15:00 +34°C° 0 mm 2 mps 665 mmHg 31%
16:00 +31°C° 0 mm 3 mps 665 mmHg 39%
17:00 +29°C° 0 mm 3 mps 665 mmHg 47%
18:00 +27°C° 0 mm 3 mps 665 mmHg 55%
19:00 +26°C° 0 mm 3 mps 665 mmHg 62%
20:00 +24°C° 0 mm 2 mps 666 mmHg 70%
21:00 +23°C° 0 mm 1 mps 666 mmHg 77%
22:00 +22°C° 0 mm 1 mps 666 mmHg 78%
23:00 +22°C° 0 mm 1 mps 666 mmHg 79%

20 April, Tuesday

Time Temperature Precipitation Wind Pressure Humidity
00:00 +20°C° 0 mm 0 mps 666 mmHg 79%
01:00 +20°C° 0 mm 0 mps 666 mmHg 77%
02:00 +22°C° 0 mm 1 mps 665 mmHg 75%
03:00 +21°C° 0 mm 1 mps 665 mmHg 73%
04:00 +21°C° 0 mm 1 mps 665 mmHg 71%
05:00 +21°C° 0 mm 1 mps 666 mmHg 69%
06:00 +21°C° 0 mm 1 mps 666 mmHg 67%
07:00 +23°C° 0 mm 1 mps 666 mmHg 58%
08:00 +25°C° 0 mm 1 mps 667 mmHg 50%
09:00 +28°C° 0 mm 1 mps 668 mmHg 41%
10:00 +29°C° 0 mm 1 mps 668 mmHg 36%
11:00 +31°C° 0 mm 1 mps 668 mmHg 31%
12:00 +34°C° 0 mm 2 mps 668 mmHg 26%
13:00 +34°C° 0 mm 2 mps 667 mmHg 27%
14:00 +34°C° 0 mm 2 mps 667 mmHg 28%
15:00 +34°C° 0 mm 3 mps 666 mmHg 29%
16:00 +31°C° 0 mm 3 mps 666 mmHg 39%
17:00 +29°C° 0 mm 4 mps 666 mmHg 49%
18:00 +27°C° 0 mm 4 mps 666 mmHg 59%
19:00 +25°C° 0 mm 3 mps 667 mmHg 66%
20:00 +24°C° 0 mm 2 mps 667 mmHg 73%
21:00 +23°C° 0 mm 2 mps 668 mmHg 79%
22:00 +21°C° 0 mm 2 mps 668 mmHg 81%
23:00 +22°C° 0 mm 1 mps 669 mmHg 82%

21 April, Wednesday

Time Temperature Precipitation Wind Pressure Humidity
00:00 +22°C° 0 mm 1 mps 669 mmHg 83%
01:00 +21°C° 0 mm 1 mps 669 mmHg 84%
02:00 +21°C° 0 mm 1 mps 668 mmHg 84%
03:00 +21°C° 0 mm 1 mps 668 mmHg 85%
04:00 +21°C° 0 mm 1 mps 668 mmHg 85%
05:00 +21°C° 0 mm 1 mps 669 mmHg 85%
06:00 +18°C° 0 mm 0 mps 669 mmHg 85%
07:00 +22°C° 0 mm 1 mps 669 mmHg 77%
08:00 +24°C° 0 mm 1 mps 670 mmHg 69%
09:00 +25°C° 0 mm 1 mps 670 mmHg 61%
10:00 +27°C° 0 mm 2 mps 670 mmHg 56%
11:00 +28°C° 0 mm 2 mps 670 mmHg 50%
12:00 +30°C° 0 mm 3 mps 670 mmHg 44%
13:00 +30°C° 0 mm 3 mps 669 mmHg 45%
14:00 +30°C° 0 mm 4 mps 669 mmHg 45%
15:00 +30°C° 0 mm 5 mps 668 mmHg 46%
16:00 +28°C° 0.1 mm 4 mps 668 mmHg 52%
17:00 +27°C° 0.1 mm 4 mps 668 mmHg 59%
18:00 +26°C° 0.1 mm 4 mps 668 mmHg 65%
19:00 +25°C° 0.2 mm 3 mps 668 mmHg 71%
20:00 +22°C° 0.2 mm 3 mps 669 mmHg 77%
21:00 +21°C° 0.2 mm 2 mps 669 mmHg 82%
22:00 +21°C° 0.1 mm 2 mps 669 mmHg 84%
23:00 +21°C° 0.1 mm 2 mps 669 mmHg 86%
Show more

We Need Your Consent

Meteoprog and our Service Providers may store and access personal data such as cookies, device identifiers or other similar technologies on your device and process such data to personalise content and ads, as well as provide social media features and to analyse the traffic.

  • Store and/or access information on your device

    Cookies, device identifiers or other information can be stored or accessed on your device for the purposes indicated above.

  • Personalised ads and content, ad and content measurement, audience insights, and products development

    Ads and content can be personalised based on a profile. More data can be added to better personalise ads and content. Ad and content performance can be measured. Insights about the audience who saw the ads and content can be derived. Such data can be used to develop or improve user’s experience, systems and software.

By clicking ‘I Agree’ you will allow the use of indicated cookies, device identifiers, web beacons or other similar technologies. Your settings can be changed in the browser on your device.

For certain purposes, legitimate interests may be relied on, rather than consent. You can read more about this in our Privacy and Cookie Policy.